Regional Weather Roundup
Issued by NWS

Home | Current Version | Previous Version | Graphics & Text | Print | Product List | Glossary Off
Versions: 1 2 3 4 5 6 7 8 9 10 11 12 13 14 15 16 17 18 19 20 21 22 23 24 25 26 27 28 29 30 31 32 33 34 35 36 37 38 39 40 41 42 43 44 45 46 47 48 49 50

000
ASUS43 KDMX 241808
RWRIA

WEATHER ROUNDUP FOR IOWA
NATIONAL WEATHER SERVICE DES MOINES IA
100 PM CDT WED AUG 24 2016

NOTE: "FAIR" INDICATES FEW OR NO CLOUDS BELOW 12,000 FEET WITH NO
SIGNIFICANT WEATHER AND/OR OBSTRUCTIONS TO VISIBILITY.

* - THESE STATIONS ARE NOT NWS STATIONS...THUS NOT UNDER NWS
QUALITY CONTROL.  THEY ALSO DO NOT REPORT WEATHER SUCH
AS PRECIPITATION OR FOG.

IAZ001>003-012>014-020>022-031>034-043>046-241900-
   NORTHWEST IOWA

CITY           SKY/WX    TMP DP  RH WIND       PRES   REMARKS
CARROLL *      MOSUNNY   81  66  61 NW15      29.97S HX  83
CHEROKEE *     CLOUDY    77  59  53 NW8       30.01S
DENISON *      MOSUNNY   79  59  50 N14G21    29.99R HX  80
LE MARS *      CLOUDY    73  61  64 NW8       30.03F
ORANGE CITY *  CLOUDY    73  61  64 NW7       30.03F
SHELDON *      CLOUDY    75  63  64 NW8       30.02R
SIOUX CITY     CLOUDY    74  63  68 NW10      30.02S
6HR MIN TEMP:  66; 6HR MAX TEMP:  75;

SPENCER        CLOUDY    78  58  49 NW10      30.01R
6HR MIN TEMP:  67; 6HR MAX TEMP:  79;

STORM LAKE *   MOSUNNY   75  59  57 N8G15     30.02R
$$

IAZ055>058-069>071-079>083-090>094-241900-
   SOUTHWEST IOWA

CITY           SKY/WX    TMP DP  RH WIND       PRES   REMARKS
ATLANTIC *     PTSUNNY   77  70  78 CALM      29.99F
AUDUBON *      MOSUNNY   81  72  74 NW5       30.00S HX  84
CLARINDA *       N/A     79  70  73 MISG      30.02S HX  81
COUNCIL BLFS * MOSUNNY   79  68  69 VRB5      30.00F HX  81
CRESTON *      CLOUDY    79  70  73 SW10      30.02S HX  81
HARLAN  *      MOSUNNY   81  70  69 CALM      30.03S HX  84
LAMONI         MOSUNNY   80  73  79 W12       30.00F HX  84
6HR MIN TEMP:  64; 6HR MAX TEMP:  81;

RED OAK *      CLOUDY    77  72  83 NW5       30.01R
SHENANDOAH *   CLOUDY    77 -33   1 CALM      30.01R
$$

IAZ047>049-059>061-072>074-084-241900-
   CENTRAL IOWA

CITY           SKY/WX    TMP DP  RH WIND       PRES   REMARKS
AMES           CLOUDY    77  73  87 W7        29.96R
6HR MIN TEMP:  66; 6HR MAX TEMP:  77;

ANKENY *         N/A    N/A N/A N/A MISG        N/A
BOONE *        CLOUDY    75  70  83 W6        29.96S
CHARITON *       N/A     81  70  69 MISG      29.99S HX  84
DES MOINES     CLOUDY    81  71  71 W9        29.96F HX  85
6HR MIN TEMP:  68; 6HR MAX TEMP:  83;

GRINNELL*      SUNNY     82  70  68 SW10      29.97S HX  86
KNOXVILLE *    SUNNY     81  70  69 SW12G20   29.97S HX  84
MARSHALLTOWN   CLOUDY    76  71  85 W9        29.95R
6HR MIN TEMP:  69; 6HR MAX TEMP:  79;

NEWTON *       MOSUNNY   81  73  78 SW14      29.96R HX  85
PERRY *        CLOUDY    77  73  88 CALM      29.98S
$$

IAZ004>006-015-016-023>025-035-036-241900-
   NORTH CENTRAL IOWA

CITY           SKY/WX    TMP DP  RH WIND       PRES   REMARKS
ALGONA *       PTSUNNY   77  70  78 N10       29.98R
ESTHERVILLE    CLOUDY    76  60  57 N12       29.99R
6HR MIN TEMP:  66; 6HR MAX TEMP:  76;

FORT DODGE *   PTSUNNY   79  70  73 NW7       29.98R HX  81
MASON CITY     CLOUDY    76  70  82 N7        29.97R
6HR MIN TEMP:  71; 6HR MAX TEMP:  76;

FOREST CITY *    N/A    N/A N/A N/A MISG        N/A
WEBSTER CITY * CLOUDY    77  72  83 NW7G14    29.95S
IOWA FALLS *   CLOUDY    75  70  84 W10       29.97R
$$

IAZ007>011-017>019-026>030-037>042-050>054-066-241900-
   NORTHEAST IOWA

CITY           SKY/WX    TMP DP  RH WIND       PRES   REMARKS
CEDAR RAPIDS   SUNNY     82  73  74 SW10      29.94S HX  87
6HR MIN TEMP:  72; 6HR MAX TEMP:  83; 6HR PCP:  0.03;

CHARLES CITY * CLOUDY    75  73  94 W9        29.95R
CLINTON *      MOSUNNY   82  75  79 W9          N/A  HX  89
DECORAH *      CLOUDY    77  73  88 VRB7      29.91S
DUBUQUE        MOSUNNY   81  72  74 SW10      29.94S HX  85
6HR MIN TEMP:  67; 6HR MAX TEMP:  81; 6HR PCP:  0.01;

MONTICELLO *   SUNNY     82  73  74 SW12      29.93S HX  88
OELWEIN *      PTSUNNY   81  72  74 W12       29.93F HX  84
WATERLOO       CLOUDY    80  70  71 W12       29.92S HX  83
6HR MIN TEMP:  72; 6HR MAX TEMP:  81;

$$

IAZ064-065-067-068-078-241900-
   EAST CENTRAL IOWA

CITY           SKY/WX    TMP DP  RH WIND       PRES   REMARKS
DAVENPORT      MOSUNNY   83  71  67 W10       29.96R HX  87
6HR MIN TEMP:  72; 6HR MAX TEMP:  83; 6HR PCP:  0.07;

IOWA CITY      SUNNY     83  70  64 VRB6      29.96S HX  87
6HR MIN TEMP:  73; 6HR MAX TEMP:  83;

MT. PLEASANT * SUNNY     86  69  57 W6        29.98F HX  90
MUSCATINE *    SUNNY     84  70  61 W10       29.96F HX  88
QUAD CITIES    MOSUNNY   82  70  66 SW12      29.95S HX  86
6HR MIN TEMP:  73; 6HR MAX TEMP:  83; 6HR PCP:  0.12;

$$

IAZ062-063-075>077-085>089-095>099-241900-
   SOUTHEAST IOWA

CITY           SKY/WX    TMP DP  RH WIND       PRES   REMARKS
BURLINGTON     SUNNY     83  70  64 W7G17     29.98S HX  87
6HR MIN TEMP:  74; 6HR MAX TEMP:  83;

FAIRFIELD *    SUNNY     84  70  61 SW9       29.98S HX  88
FORT MADISON *   N/A     84  72  65 SW7       29.99F HX  89
KEOKUK *       MOSUNNY   84  73  70 SW13G18   29.98F HX  91
OSKALOOSA *      N/A     81  69  67 W8        29.98S HX  84
CENTERVILLE *    N/A     84  73  70 SW9       30.01S HX  91
OTTUMWA        SUNNY     83  66  56 W15       29.96F HX  85
6HR MIN TEMP:  68; 6HR MAX TEMP:  83;

WASHINGTON *   SUNNY     82  70  65 W9        29.98S HX  86
$$

ABBREVIATIONS USED IN REMARKS
   TC - TEMPERATURES IN CELSIUS
  WCI - WIND CHILL INDEX
   HX - HEAT INDEX
  VSB - VISIBILITY
$$





USA.gov is the U.S. government's official web portal to all federal, state and local government web resources and services.